O3B FM5 1 39188U 13031A 26255.19223856 -.00000028 00000+0 00000+0 0 9992 2 39188 0.0828 318.5242 0002496 198.2460 203.2410 5.00115703241387 O3B FM4 1 39189U 13031B 26253.71254985 -.00000028 00000+0 00000+0 0 9996 2 39189 0.0404 352.7610 0004494 149.7641 217.5054 5.00115971241311 O3B FM2 1 39190U 13031C 26254.97731682 -.00000028 00000+0 00000+0 0 9991 2 39190 0.0348 358.6108 0002612 167.5788 193.8173 5.00116110241445 O3B PFM 1 39191U 13031D 26255.19133123 -.00000028 00000+0 00000+0 0 9993 2 39191 0.0618 338.2371 0004879 169.3616 212.4311 5.00116067241015 O3B FM3 1 40079U 14038A 26255.25805394 -.00000028 00000+0 00000+0 0 9991 2 40079 0.0486 353.4907 0003502 221.2929 145.1935 5.00115800217398 O3B FM7 1 40080U 14038B 26255.00430642 -.00000028 00000+0 00000+0 0 9996 2 40080 0.0422 348.3442 0002917 143.0257 228.6549 5.00115670222211 O3B FM6 1 40081U 14038C 26254.83137172 -.00000028 00000+0 00000+0 0 9999 2 40081 0.0458 352.1714 0002575 176.6296 191.2045 5.00115806222162 O3B FM8 1 40082U 14038D 26254.48478459 -.00000028 00000+0 00000+0 0 9997 2 40082 0.0450 351.3625 0002761 179.5150 189.1271 5.00116154222259 O3B FM10 1 40348U 14083A 26255.11175949 -.00000028 00000+0 00000+0 0 9991 2 40348 0.0488 347.3308 0002299 208.3403 164.3217 5.00115419214244 O3B FM11 1 40349U 14083B 26255.12443384 -.00000028 00000+0 00000+0 0 9994 2 40349 0.0541 348.0240 0002192 169.1251 202.8605 5.00115542214263 O3B FM12 1 40350U 14083C 26253.95202704 -.00000028 00000+0 00000+0 0 9994 2 40350 0.0535 348.6907 0002427 180.2202 191.0938 5.00115999214214 O3B FM9 1 40351U 14083D 26255.17818547 -.00000028 00000+0 00000+0 0 9999 2 40351 0.0542 346.8280 0002603 182.2768 190.9008 5.00116103214429 LEO 1 (LEO VANTAGE 1) 1 43113U 18004C 26255.21618238 .00001375 00000+0 99857-4 0 9993 2 43113 99.2409 184.9031 0348649 172.0279 188.6671 14.68260364450258 O3B FM15 1 43231U 18024A 26255.04514134 -.00000028 00000+0 00000+0 0 9999 2 43231 0.0560 356.2474 0002559 176.0680 187.6883 5.00115855155378 O3B FM16 1 43232U 18024B 26255.09744135 -.00000028 00000+0 00000+0 0 9991 2 43232 0.0585 359.5448 0002546 171.5161 188.9435 5.00116034155291 O3B FM14 1 43233U 18024C 26255.13828302 -.00000028 00000+0 00000+0 0 9996 2 43233 0.0582 0.8589 0002823 168.9563 190.1905 5.00115822155296 O3B FM13 1 43234U 18024D 26255.00429874 -.00000028 00000+0 00000+0 0 9994 2 43234 0.0570 342.1916 0000995 118.9964 258.8230 5.00115656155409 O3B FM20 1 44112U 19020A 26254.96447333 -.00000028 00000+0 00000+0 0 9991 2 44112 0.0542 353.2834 0002233 175.7208 191.0005 5.00115720135919 O3B FM19 1 44113U 19020B 26255.19132669 -.00000028 00000+0 00000+0 0 9991 2 44113 0.0774 341.0536 0002998 163.1211 215.8453 5.00116022135787 O3B FM17 1 44114U 19020C 26255.07166007 -.00000028 00000+0 00000+0 0 9992 2 44114 0.0479 14.2730 0002561 158.8558 186.8746 5.00115699135877 O3B FM18 1 44115U 19020D 26254.61825140 -.00000028 00000+0 00000+0 0 9992 2 44115 0.0545 352.8386 0002738 178.3371 188.8287 5.00115419135968 SALSAT 1 46495U 20068K 26254.97802253 .00005968 00000+0 20261-3 0 9990 2 46495 97.8880 263.4175 0009470 9.1845 350.9566 15.30885844328637 O3B MPOWER F1 1 54755U 22174A 26255.27146160 -.00000028 00000+0 00000+0 0 9998 2 54755 0.0432 340.9705 0006914 195.7853 139.3473 5.00114440069715 O3B MPOWER F2 1 54756U 22174B 26255.06258727 -.00000028 00000+0 00000+0 0 9999 2 54756 0.0401 344.7420 0005514 180.7390 194.5347 5.00118290069791 O3B MPOWER F4 1 56367U 23059A 26255.12680882 -.00000028 00000+0 00000+0 0 9990 2 56367 0.0603 342.9417 0007701 185.6439 191.4317 5.00115023062943 O3B MPOWER F3 1 56368U 23059B 26254.56031177 -.00000028 00000+0 00000+0 0 9995 2 56368 0.0607 342.0462 0006440 181.0984 196.8764 5.00114921059052 O3B MPOWER F9 1 64866U 25153A 26255.12822191 -.00000028 00000+0 00000+0 0 9991 2 64866 0.0665 357.3633 0007301 186.1927 176.4387 5.00115385023913 O3B MPOWER F10 1 64867U 25153B 26255.09436900 -.00000028 00000+0 00000+0 0 9997 2 64867 0.0622 355.5922 0004500 270.7541 93.6022 5.00114844026387